Location: Newark
(47.3150°N, 5.1150°E)
Time: 18:55:52
(UTC+00:00)

STARS - Visible Passes

Search period start: 07 December 2019 00:00
Search period end: 17 December 2019 00:00
Orbit: 625 x 640 km, 98.3° (Epoch: 06 December)

Date Brightness Start Highest point End Pass type
(mag) Time Alt. Az. Time Alt. Az. Time Alt. Az.
07 Dec ? 06:20:17 10° SE 06:24:18 37° ENE 06:28:21 10° N visible
09 Dec ? 05:28:37 10° E 05:30:34 13° ENE 05:32:32 10° NNE visible
10 Dec ? 05:48:16 10° ESE 05:51:21 19° ENE 05:54:28 10° NNE visible
11 Dec ? 06:08:26 10° SE 06:12:11 29° ENE 06:15:57 10° N visible
12 Dec ? 06:28:55 10° SE 06:33:04 44° ENE 06:37:16 10° N visible
14 Dec ? 05:36:48 10° E 05:39:17 15° ENE 05:41:47 10° NNE visible
15 Dec ? 05:56:41 10° ESE 06:00:05 22° ENE 06:03:30 10° NNE visible
16 Dec ? 06:17:00 10° SE 06:20:56 34° ENE 06:24:55 10° N visible
